GFSNGP_sfc_rhum_237.txt.gz
RH
66 56 49 53 51 43 49 49 68 48 41 32 29 26 25 22 22 21 23 21 20 27 29 32 37 37 34 37 36 38 35 41 50 60 68 77 80 81 79 76 75 79 76 76
68 47 45 50 43 42 39 35 38 39 42 34 32 29 29 39 40 40 37 33 30 25 24 27 30 33 36 42 49 49 50 53 53 57 65 74 81 84 85 89 86 88 84 79
81 56 59 75 60 44 41 34 38 56 54 47 38 33 32 46 42 42 38 37 36 36 35 33 33 37 42 44 43 42 46 49 52 55 59 66 77 88 89 91 92 92 91 89
85 71 98 54 31 31 33 40 66 66 66 62 57 52 39 41 43 43 41 40 39 38 37 36 38 39 42 40 44 47 44 44 48 55 62 71 77 88 92 93 94 94 94 93
98 91 61 50 41 53 58 64 57 60 56 53 55 53 48 39 39 42 45 45 44 42 39 35 34 36 37 42 43 47 46 48 51 54 59 65 76 87 93 95 96 97 97 97
100 97 94 67 64 56 52 81 57 53 56 54 66 79 63 42 42 44 42 45 46 42 38 36 36 34 36 38 41 43 50 48 47 51 60 67 71 84 90 96 97 98 98 98
95 97 91 81 69 55 80 84 60 69 65 60 62 61 49 50 45 43 44 42 40 38 40 39 38 38 40 38 38 39 43 42 48 54 60 68 75 81 88 95 98 99 100 99
84 91 90 52 45 74 79 55 71 67 66 62 56 53 53 48 49 49 49 44 40 41 43 43 42 40 41 41 39 36 37 40 41 49 57 65 77 85 86 96 100 100 100 100
69 78 47 40 46 65 63 72 68 67 60 56 54 55 56 55 55 52 48 45 42 44 46 44 41 40 44 44 41 42 41 39 38 47 50 53 67 82 92 99 100 100 100 100
66 51 43 40 37 44 43 47 41 34 49 56 62 63 60 58 57 54 50 49 47 50 52 53 48 45 46 44 42 43 46 45 41 46 51 63 78 88 99 100 100 98 100 100
60 51 49 45 45 49 47 47 51 53 59 60 61 63 63 62 57 58 57 57 59 63 64 62 57 55 50 47 45 46 46 45 47 46 56 62 80 97 99 98 98 99 99 99
76 53 56 55 48 42 53 59 58 62 63 62 65 66 65 68 67 67 69 68 67 65 60 58 57 57 56 54 52 52 51 50 55 60 64 70 87 100 100 100 100 100 100 100
53 51 49 50 45 56 59 59 58 61 58 56 62 75 78 82 78 77 73 67 67 67 66 66 67 66 60 59 61 63 60 55 58 66 68 71 98 99 100 100 100 100 100 100
47 48 58 53 68 55 56 59 63 63 67 73 77 77 82 82 78 78 72 71 69 73 79 80 80 81 72 72 69 65 64 64 61 68 74 86 98 99 100 100 100 100 100 100
52 50 52 56 58 55 65 74 78 80 76 75 72 79 80 87 89 85 74 70 73 79 84 83 82 84 82 85 90 80 68 69 68 74 87 91 97 100 100 100 100 100 100 99
48 50 59 62 70 74 76 81 87 86 79 77 80 81 86 83 83 82 78 81 86 93 92 92 93 94 95 94 95 96 78 72 73 82 96 100 100 99 100 100 100 100 100 100
59 71 75 86 83 86 86 83 81 83 90 87 89 87 89 87 86 82 85 85 84 85 83 94 96 95 96 96 93 96 91 83 87 93 95 99 99 100 100 100 99 99 99 100
51 62 77 83 92 92 87 82 80 81 85 90 87 85 89 93 95 95 92 88 85 83 83 96 96 96 96 96 97 96 93 100 100 100 99 100 100 99 99 99 98 98 99 99
47 66 73 82 86 90 89 86 79 76 80 83 89 92 88 89 93 95 91 91 90 94 94 97 97 97 97 97 98 98 99 99 99 99 98 98 99 98 98 98 98 98 98 98
65 67 68 76 82 83 84 82 77 78 80 82 84 86 91 90 93 94 92 93 94 96 94 97 97 98 98 98 98 98 98 99 99 98 98 98 98 98 97 96 96 97 98 98
68 72 81 89 91 88 89 88 92 92 91 76 82 91 95 93 93 91 93 96 96 91 86 83 95 97 97 98 97 98 98 99 98 98 98 97 97 97 98 98 98 98 99 99
78 86 94 96 93 87 88 89 82 89 92 88 89 83 95 93 94 90 92 98 98 94 89 88 89 88 93 97 97 98 97 98 98 97 97 97 98 98 98 98 98 98 98 98
84 84 90 92 92 89 85 84 87 89 92 95 93 93 96 96 98 96 93 96 98 98 94 94 93 89 87 89 94 96 97 97 97 97 97 97 97 98 97 98 98 98 98 98
84 85 87 87 90 88 87 80 72 86 91 90 91 95 94 96 96 94 95 94 94 95 98 98 96 94 88 91 91 91 93 94 96 96 96 96 97 97 97 97 97 97 96 96
80 81 81 82 81 84 77 66 71 84 84 89 86 88 81 86 97 97 94 94 92 92 93 92 95 97 96 94 93 94 94 94 95 94 94 95 96 96 97 97 97 97 97 98
81 84 74 70 76 78 76 75 86 81 85 96 97 97 96 94 91 86 86 88 88 91 94 94 94 94 96 96 97 95 94 93 93 94 94 95 95 96 96 96 96 97 97 98
83 85 86 80 73 74 79 82 87 91 92 96 94 96 95 96 96 94 97 93 93 92 94 91 93 92 93 94 94 95 95 95 96 96 96 95 95 96 96 97 97 97 97 96

GFSNGP_sfc_rhum_240.txt.gz
RH
68 55 50 50 48 45 52 55 78 56 49 43 51 40 46 43 41 40 39 39 39 39 40 38 39 39 35 39 42 52 52 54 58 61 62 64 67 75 84 86 85 86 89 89
70 48 50 59 52 50 49 44 44 45 51 61 54 48 48 45 43 42 42 39 38 37 35 37 38 38 39 42 43 50 50 48 54 54 55 61 68 76 85 89 90 90 92 92
83 65 60 67 48 46 46 49 66 86 77 58 52 55 47 45 43 46 42 40 38 38 37 37 38 38 41 42 42 45 48 50 50 53 55 61 67 75 81 89 93 93 93 94
88 73 86 44 60 57 54 65 63 62 60 56 56 58 43 40 45 48 45 44 42 41 40 39 38 40 40 40 40 45 49 49 48 52 59 58 61 66 77 88 91 95 94 93
97 95 65 60 74 74 80 76 60 70 69 68 59 59 55 46 48 50 50 52 53 48 44 40 42 42 42 42 42 43 46 47 47 56 52 52 59 64 74 85 88 92 94 95
97 97 96 87 61 46 62 88 54 73 76 77 68 84 71 57 54 56 57 57 54 50 46 43 45 43 43 44 44 44 49 50 46 49 58 64 61 61 78 86 88 94 95 96
93 97 88 79 50 54 86 82 52 66 74 77 81 64 53 62 59 58 57 51 49 48 49 51 46 46 48 46 45 45 49 49 50 49 50 56 71 76 79 83 87 92 97 98
93 99 88 48 54 70 68 58 65 70 68 71 68 64 65 61 61 59 58 54 49 51 51 50 49 50 50 50 47 47 49 50 49 50 50 46 65 65 82 87 90 98 100 100
79 78 61 50 56 52 58 69 63 67 62 64 67 69 69 68 65 62 59 57 53 55 58 57 55 56 61 59 56 56 56 55 53 51 49 49 59 68 80 87 96 98 100 100
69 59 52 48 43 51 47 56 53 56 65 67 72 73 74 68 69 68 63 62 62 65 68 67 60 57 58 57 57 59 62 60 56 56 57 56 58 75 80 78 93 98 100 100
64 54 54 50 51 51 54 47 60 62 67 66 71 71 72 77 75 73 72 71 71 71 70 68 63 63 60 60 61 62 62 61 62 62 61 62 62 70 74 75 82 81 95 100
75 52 62 58 55 48 52 63 62 64 66 65 68 80 82 83 81 80 80 75 67 66 65 65 63 63 62 61 63 68 72 70 71 72 72 68 70 73 98 99 100 98 100 100
61 54 61 61 51 51 60 58 65 73 79 82 81 86 85 87 82 79 76 75 69 69 69 67 67 66 65 66 70 77 78 73 73 76 77 78 75 80 81 96 100 100 100 100
56 56 63 58 68 63 67 74 72 74 78 81 80 72 73 75 76 77 78 74 72 70 72 68 66 70 67 70 75 86 89 93 89 87 82 82 77 85 91 98 98 100 100 100
59 59 59 54 62 74 77 78 84 88 83 82 70 72 78 84 84 81 76 70 75 76 75 73 74 74 73 84 90 94 95 95 96 97 90 82 81 80 86 94 98 100 100 100
63 62 65 70 79 80 80 84 87 89 87 82 74 77 79 79 80 80 73 77 86 88 80 82 84 84 87 92 90 95 95 96 98 97 97 89 82 92 94 97 99 100 100 100
72 71 78 82 86 86 87 86 85 86 84 79 80 76 78 79 82 79 81 84 84 88 85 84 91 90 88 96 96 96 97 97 98 98 98 94 91 96 98 100 100 100 100 100
60 65 72 77 90 92 89 84 88 87 89 83 80 86 84 86 90 88 90 86 85 85 85 82 85 88 88 96 96 97 97 98 98 98 96 97 99 99 99 99 99 99 99 100
65 75 83 84 88 89 90 91 88 88 86 76 83 92 88 88 91 93 92 88 91 96 93 81 83 85 91 97 97 97 98 98 98 99 99 98 99 99 98 98 98 99 99 98
73 78 83 85 87 86 88 88 83 87 90 83 86 92 90 92 94 95 93 89 94 98 94 85 85 87 94 94 97 97 97 97 98 98 99 98 99 98 98 98 98 98 98 98
75 78 84 89 91 89 89 89 91 94 89 91 91 94 94 95 93 96 91 91 90 94 97 94 87 85 88 90 94 95 96 97 97 97 98 99 98 98 97 98 97 97 97 97
81 85 90 92 92 88 89 88 90 91 94 93 92 90 94 90 90 92 93 98 93 94 96 95 93 86 84 83 92 96 95 95 97 97 97 98 98 97 97 97 97 97 97 98
85 86 90 94 92 89 87 88 91 90 92 95 94 94 95 98 98 94 94 93 93 94 93 94 94 94 88 88 90 90 94 96 96 97 97 97 98 97 97 97 97 97 97 98
86 87 89 89 89 90 89 85 86 86 91 89 92 96 95 99 97 98 99 97 97 95 93 94 94 92 93 92 92 90 90 92 93 95 94 96 97 97 97 97 97 98 97 97
88 86 88 92 92 92 88 85 82 91 93 91 90 87 87 91 98 95 97 97 96 94 91 92 92 92 94 94 95 95 95 95 95 91 92 94 95 96 95 95 97 97 97 97
88 90 88 84 85 89 90 89 90 93 90 95 98 98 97 96 92 94 96 96 92 95 96 95 93 94 94 93 93 94 94 93 94 94 94 95 94 95 95 95 95 96 97 97
90 92 90 90 90 89 85 86 85 90 92 92 93 97 96 97 97 93 98 96 96 97 97 96 94 92 92 94 93 90 90 92 93 93 93 94 94 95 96 97 97 97 95 94

GFSNGP_sfc_rhum_243.txt.gz
RH
75 64 59 60 56 49 55 57 81 52 53 65 64 63 54 45 44 42 41 39 39 41 42 40 42 43 43 44 43 44 46 49 53 53 58 64 70 76 83 87 89 90 91 91
74 52 52 60 56 54 52 53 56 53 55 63 55 55 48 48 48 46 45 44 43 42 39 40 38 41 42 44 46 48 48 51 51 52 54 58 64 73 75 74 80 90 92 93
82 64 63 73 55 63 64 71 78 92 81 64 64 61 53 55 55 52 50 48 46 43 41 42 42 44 47 46 45 47 49 50 51 52 54 55 52 56 73 71 84 82 87 92
90 73 76 45 69 65 71 65 70 71 72 70 70 65 57 56 58 57 56 52 49 46 47 46 45 48 46 43 43 49 47 50 55 54 54 54 60 61 64 64 80 86 86 87
94 95 65 66 74 81 81 77 64 75 74 74 72 61 61 58 56 58 63 62 58 53 52 47 46 48 46 47 46 46 47 49 51 54 54 54 57 64 65 72 70 80 86 88
95 99 98 71 62 51 64 90 53 67 75 77 76 88 80 59 62 63 62 64 64 64 53 50 49 48 51 53 52 52 54 56 53 53 53 57 59 60 70 77 72 77 82 88
92 96 85 75 52 47 91 76 62 69 76 80 86 76 67 66 65 64 66 64 61 58 59 55 53 55 59 59 60 58 59 60 60 58 60 58 61 64 65 70 71 81 87 88
92 98 94 50 53 60 63 57 67 67 70 70 71 74 69 70 70 68 67 64 59 61 62 61 61 62 64 63 59 58 60 62 61 61 59 54 63 65 65 72 75 79 91 98
78 77 64 54 58 53 55 70 64 67 55 68 72 72 73 75 74 74 71 68 64 69 71 68 64 63 68 66 63 65 66 66 65 63 60 60 67 70 74 76 81 76 90 93
67 60 54 53 50 46 54 58 55 53 61 70 74 75 78 76 81 81 77 77 74 75 74 71 66 63 64 62 60 64 66 67 68 72 73 70 70 73 76 78 82 82 88 94
63 55 55 51 52 53 55 55 56 63 69 70 73 78 84 88 86 85 85 80 77 77 71 69 68 68 60 59 60 65 67 69 70 69 72 77 76 77 77 73 76 78 86 92
74 60 60 57 53 56 60 55 53 68 71 82 85 90 90 91 85 76 74 73 74 76 73 72 69 66 62 60 62 71 78 79 79 80 79 73 75 80 78 80 80 99 99 99
59 55 61 59 58 61 57 51 70 79 82 86 86 88 86 73 68 72 73 72 73 70 72 71 68 69 67 68 76 81 86 86 88 90 91 92 88 80 84 81 88 99 99 100
66 67 71 64 63 61 70 77 74 80 82 83 82 78 76 71 73 74 75 74 69 72 78 74 73 73 71 76 80 84 84 88 91 94 95 96 95 93 91 90 89 87 100 100
57 59 58 55 71 79 80 80 81 86 87 87 83 83 72 77 78 77 74 70 72 77 80 81 79 76 75 80 84 87 90 92 92 96 97 97 97 97 97 92 87 87 100 100
64 71 72 76 73 82 81 82 80 87 86 85 86 84 74 72 72 74 72 75 86 87 82 80 79 77 80 81 91 93 90 91 96 96 97 97 97 97 97 98 94 89 96 100
73 74 79 87 88 87 84 83 85 86 86 86 89 86 72 77 76 76 76 82 82 80 79 84 86 77 82 85 95 95 96 96 97 97 97 98 98 98 98 98 97 98 100 100
63 69 74 77 86 90 90 86 89 88 91 88 83 83 81 83 91 90 93 93 84 85 79 87 88 82 83 87 92 94 97 97 97 98 98 98 98 98 98 99 99 98 99 99
59 67 72 78 84 88 90 91 90 88 89 88 88 91 92 91 93 95 95 93 88 93 89 90 91 81 86 87 89 93 95 96 96 97 97 98 98 99 99 98 98 98 98 98
70 76 82 84 85 85 88 90 86 88 89 90 91 94 94 95 96 97 95 90 89 96 94 92 91 85 87 87 87 91 93 96 96 96 97 97 97 98 99 98 98 99 98 98
80 84 85 87 90 90 90 89 90 91 89 95 92 94 95 98 90 98 98 93 89 89 90 92 93 95 86 88 87 90 92 95 96 97 97 97 96 97 97 97 97 97 96 97
85 86 88 90 92 90 91 88 88 91 92 94 95 95 95 96 94 92 95 97 94 88 87 92 93 94 94 90 84 90 87 90 94 95 96 96 96 96 97 97 97 97 97 97
84 85 87 91 90 88 88 90 91 91 93 94 94 91 95 98 99 97 99 95 92 91 88 92 92 93 92 94 93 92 92 90 91 94 95 96 97 97 96 97 97 97 97 97
84 86 87 88 89 90 90 87 87 87 92 89 91 92 95 99 98 98 99 100 100 92 92 92 95 94 92 94 94 94 94 94 94 95 93 92 95 95 95 96 96 96 95 95
86 87 89 92 92 91 89 88 89 89 94 94 92 90 89 93 98 98 98 98 99 96 98 94 96 96 95 94 94 94 95 95 95 95 95 95 95 95 95 95 96 96 95 95
90 92 92 90 89 91 93 94 94 95 96 98 98 98 98 97 94 94 96 97 93 96 98 98 97 97 96 92 91 92 94 93 94 93 94 94 94 94 94 94 95 96 96 96
89 94 92 94 94 94 95 95 96 96 94 93 90 94 95 98 97 94 99 97 97 98 98 98 96 96 93 93 92 90 90 89 89 91 94 94 94 94 94 94 94 94 94 95

GFSNGP_sfc_rhum_246.txt.gz
RH
70 71 69 67 66 61 62 59 78 49 59 52 69 66 59 54 53 49 47 46 44 41 39 38 40 42 44 46 43 43 42 44 52 52 50 52 56 59 66 68 76 90 93 95
77 57 61 58 56 59 60 59 60 58 62 68 65 63 56 58 54 52 52 50 47 44 42 44 43 45 48 47 47 46 46 48 50 52 52 55 54 55 59 62 64 83 81 90
79 64 66 79 66 56 70 68 68 92 82 74 78 71 63 61 58 60 57 54 53 49 50 49 48 48 52 50 48 49 50 48 50 53 55 55 52 54 61 64 70 74 85 86
91 73 76 49 72 71 74 66 71 70 70 74 79 75 65 58 60 61 62 60 57 57 58 55 55 50 50 50 52 56 55 54 56 58 58 55 55 56 61 62 69 74 75 84
94 95 65 70 80 75 73 77 63 71 70 72 75 78 70 55 59 64 67 70 68 66 62 58 52 55 56 57 56 57 60 62 62 64 64 63 62 62 60 64 66 68 65 69
99 98 96 58 66 57 72 91 59 61 72 77 78 92 76 59 68 68 68 70 72 70 63 59 59 60 63 65 64 63 64 65 63 66 67 69 66 66 68 66 64 69 67 67
95 97 82 62 55 56 86 75 63 69 71 76 85 75 64 75 71 71 72 73 70 68 69 67 66 66 69 67 68 66 66 67 67 66 68 67 70 69 69 71 71 73 73 74
89 97 96 56 48 64 65 60 62 69 67 65 67 72 76 72 74 74 77 74 70 74 74 72 71 70 71 70 65 64 65 66 66 67 66 64 74 76 75 77 79 80 80 83
79 78 63 58 59 54 51 59 66 67 63 67 71 74 73 78 79 81 82 80 77 81 80 74 68 68 74 72 67 64 64 65 63 61 60 62 70 74 82 84 84 82 83 84
63 59 63 59 56 53 50 60 58 57 61 67 76 77 81 84 90 89 87 87 81 81 82 80 72 69 70 68 64 64 66 65 66 68 69 69 67 71 81 84 87 85 85 87
69 60 54 54 56 54 55 58 60 56 67 73 82 88 90 94 94 88 69 67 69 71 73 75 71 71 65 64 64 69 73 75 75 75 76 78 75 77 74 72 79 87 85 86
59 54 55 54 53 56 59 60 60 61 73 85 87 90 91 93 89 78 71 68 69 69 71 77 75 72 68 66 68 78 84 82 83 84 85 84 85 85 80 81 80 82 86 88
55 62 64 58 59 61 64 64 62 71 80 84 87 87 89 86 82 75 69 68 73 72 72 79 79 78 72 72 74 80 82 81 84 87 94 96 96 97 96 86 84 85 86 86
67 68 72 69 69 61 67 78 77 82 83 85 86 84 86 84 77 68 71 71 68 70 75 81 79 80 74 74 78 79 82 86 86 93 96 97 96 97 97 97 96 95 86 85
68 72 66 63 65 69 82 83 81 82 85 84 85 84 85 85 81 70 69 68 70 73 75 76 76 77 74 76 82 82 85 85 86 93 93 97 97 97 97 97 97 96 91 90
67 71 73 74 71 73 84 84 81 82 87 84 86 88 85 80 80 68 66 70 88 91 78 77 78 79 76 79 85 86 86 85 87 92 96 96 96 97 97 97 98 98 98 98
70 70 80 79 80 84 87 85 82 80 85 87 88 88 86 84 86 90 83 93 91 85 83 81 89 82 78 82 86 86 87 89 92 93 95 95 97 97 98 98 99 99 99 99
61 65 70 74 84 89 89 86 87 88 91 87 86 87 89 92 94 95 96 94 83 81 81 84 87 85 79 82 86 91 90 89 91 95 96 95 96 97 97 98 98 99 99 99
64 65 75 78 80 87 88 90 90 90 89 89 92 92 92 94 97 98 97 92 87 93 93 93 92 86 82 81 87 91 88 90 89 93 95 95 93 95 96 97 97 98 98 98
68 70 79 79 83 88 87 90 89 89 90 92 93 95 95 95 99 93 94 98 92 94 92 90 92 93 94 86 88 91 91 92 91 90 94 96 96 96 96 96 97 97 98 98
75 78 82 85 88 90 87 89 90 91 89 93 92 91 92 93 96 92 99 100 94 89 91 85 90 95 90 94 91 92 93 93 93 93 95 96 96 96 96 95 96 96 97 97
84 85 86 88 90 88 91 88 87 91 91 93 95 96 96 95 97 97 95 96 91 87 89 91 93 90 91 93 92 94 93 92 93 93 93 94 94 95 96 96 96 96 96 96
86 83 86 90 89 88 89 90 91 90 92 93 93 93 94 94 97 100 100 94 98 91 86 91 91 96 96 95 95 95 94 94 95 95 95 95 95 95 94 94 94 94 95 95
83 85 83 86 89 88 89 89 90 88 92 88 92 92 90 98 99 98 99 100 100 89 94 94 99 98 99 96 96 95 95 95 95 95 94 92 95 94 94 94 94 95 94 94
81 85 88 90 91 90 88 89 90 90 92 92 92 88 90 92 95 97 98 99 100 98 98 99 99 99 97 96 95 96 95 95 95 94 94 94 95 95 94 94 94 94 94 94
88 90 91 90 88 92 93 95 95 95 96 98 99 98 98 94 91 93 96 98 94 95 97 99 99 98 98 95 97 96 94 91 92 92 93 93 94 93 94 94 94 94 94 94
88 93 93 95 95 94 95 95 97 96 96 95 91 93 95 97 93 90 98 96 96 96 98 99 98 95 95 98 96 95 94 93 96 93 94 94 93 94 94 94 94 94 94 94

GFSNGP_sfc_rhum_252.txt.gz
RH
28 26 30 33 38 37 37 29 42 23 20 14 24 29 33 35 34 33 32 30 31 32 33 32 34 33 32 34 35 38 40 42 53 61 67 74 73 69 67 67 62 59 62 59
47 31 31 33 27 24 25 26 26 26 28 19 28 36 39 38 35 33 30 30 31 32 32 34 34 35 34 36 38 38 41 45 44 47 50 68 80 81 74 71 68 68 63 59
45 39 38 66 43 25 26 25 27 32 26 26 37 40 37 35 31 32 31 32 33 34 34 35 34 36 38 38 37 38 41 41 42 47 49 56 63 68 77 82 76 76 73 66
58 44 77 41 36 25 25 26 26 28 34 34 34 35 32 29 30 31 33 36 37 36 36 34 34 36 39 37 36 39 39 41 44 48 48 47 50 59 70 77 82 81 77 73
84 53 33 30 38 39 34 32 34 34 34 32 33 36 32 28 30 35 40 42 42 38 36 33 34 39 40 38 36 35 39 43 44 48 49 49 50 55 60 68 74 75 72 73
83 84 66 36 35 29 34 41 26 33 34 36 36 39 26 29 31 39 42 42 44 40 34 33 39 40 41 39 38 38 42 44 42 47 49 52 54 55 56 56 59 64 66 65
68 82 49 28 37 34 48 40 33 32 34 37 39 31 31 35 38 41 42 38 36 34 37 40 40 43 43 40 40 40 40 42 45 46 52 51 55 58 59 61 64 68 67 72
59 81 78 30 40 48 36 37 36 35 34 38 36 34 35 37 40 40 39 33 29 32 33 38 40 43 44 40 40 38 40 43 46 50 49 47 57 59 63 70 73 74 73 76
49 45 41 35 40 34 33 33 34 33 32 34 34 32 36 40 43 42 36 28 27 29 34 35 38 42 47 47 42 43 43 47 50 53 53 54 62 64 70 72 78 79 79 83
48 35 35 35 31 32 29 32 29 30 29 30 37 36 41 44 43 40 28 28 29 32 35 40 42 44 46 44 44 46 48 52 54 62 65 63 61 68 75 78 81 78 83 87
40 33 35 31 30 33 31 32 30 28 30 33 34 32 41 44 43 36 29 31 33 36 42 45 46 46 45 44 48 51 52 56 62 68 70 70 67 72 72 72 77 83 86 86
39 28 35 26 28 28 32 31 29 29 32 34 33 38 46 43 40 33 34 35 35 40 46 48 48 49 48 49 56 58 61 64 72 77 78 76 77 76 74 82 80 82 85 89
25 29 29 29 26 26 29 28 29 32 32 32 40 44 45 42 37 49 36 35 40 46 48 48 51 53 52 60 67 61 65 66 77 79 81 85 82 84 90 82 80 86 92 94
27 35 40 39 34 31 33 31 41 40 39 40 45 45 46 37 38 36 34 38 43 47 48 51 55 59 61 65 64 58 67 77 77 82 84 84 77 82 84 92 89 82 82 90
35 35 29 30 32 32 35 40 49 50 49 50 46 47 43 38 40 37 38 42 47 49 51 59 62 65 64 68 61 64 68 75 78 85 84 82 79 79 79 82 83 85 82 79
34 37 37 38 36 34 38 43 49 47 52 53 52 49 43 39 38 39 43 48 62 64 61 68 68 66 71 70 65 68 74 80 82 82 81 79 78 80 79 82 85 92 92 93
44 49 48 48 45 42 42 43 45 48 57 57 55 46 44 44 45 43 48 57 61 66 66 67 74 70 78 70 66 76 80 78 79 75 82 81 81 80 82 85 94 95 96 94
36 39 45 49 56 61 58 55 60 58 70 63 60 57 60 60 64 69 74 75 76 72 69 73 78 80 77 74 78 78 77 72 72 77 78 85 85 82 84 86 87 92 90 94
36 36 39 42 51 64 68 72 83 80 86 79 91 97 99 100 98 98 90 92 94 93 91 82 87 82 82 82 84 77 75 74 73 75 79 81 88 86 90 91 93 93 93 96
41 41 39 41 46 55 52 67 75 79 82 100 97 99 100 100 100 97 97 100 98 96 92 86 83 89 90 86 82 83 82 84 82 82 86 84 95 100 98 91 92 94 99 96
46 46 51 56 70 94 100 97 99 100 94 96 95 96 95 100 100 96 100 100 100 90 88 86 86 86 77 81 79 86 87 91 88 87 88 87 92 88 95 96 98 97 96 96
50 56 83 88 87 68 80 65 63 86 85 97 95 99 99 95 98 96 100 100 86 82 75 78 80 83 78 89 78 87 86 85 86 86 86 88 88 88 89 89 90 92 95 97
49 54 66 86 72 56 63 62 81 76 94 98 96 87 86 73 72 77 86 98 77 78 68 75 84 83 84 88 87 88 88 87 87 86 87 88 89 89 90 90 89 89 90 90
51 50 54 56 51 57 61 59 58 56 86 62 85 100 67 76 78 72 75 91 88 92 87 94 91 72 81 90 87 87 85 87 84 84 79 77 86 85 86 88 87 88 88 87
49 50 55 56 54 52 47 52 54 56 61 60 59 63 66 58 81 73 79 83 88 76 83 91 75 71 90 89 84 83 83 81 82 81 80 81 82 83 83 82 83 83 83 82
53 52 50 48 48 48 50 53 54 55 56 66 69 80 79 68 68 72 75 76 68 73 78 90 87 85 84 80 82 82 79 75 78 78 80 79 79 78 82 81 83 83 84 84
55 65 56 56 54 54 54 55 61 65 68 70 70 78 89 88 84 75 80 80 78 80 84 84 81 74 76 81 78 76 74 74 78 77 80 80 80 82 82 82 83 83 82 82

GFSNGP_sfc_rhum_255.txt.gz
RH
21 24 24 26 26 23 24 27 37 22 18 12 15 18 22 24 26 27 26 24 25 26 27 26 28 28 27 29 29 29 29 31 36 40 43 45 50 56 62 64 75 74 73 72
36 22 21 21 18 22 22 22 21 19 20 14 13 20 27 28 28 27 26 24 25 25 25 28 26 27 27 29 31 30 30 32 33 37 39 45 54 54 53 57 61 73 76 74
35 27 30 57 35 18 19 20 20 26 19 16 24 27 28 28 27 26 27 26 27 28 29 28 26 27 29 30 29 30 31 30 33 38 40 44 42 45 55 61 60 60 69 70
47 38 83 31 21 18 17 16 16 18 16 22 22 26 26 25 25 27 28 29 30 31 30 26 24 25 29 28 28 31 30 33 35 38 40 41 44 48 56 56 61 64 65 63
81 47 30 26 27 24 22 20 17 18 18 23 24 28 29 22 26 28 29 34 36 32 29 24 24 28 29 30 29 29 34 36 36 38 41 42 47 50 51 54 57 58 56 63
71 76 72 30 20 20 18 34 19 21 23 26 26 37 28 27 28 30 33 34 35 31 25 24 28 29 32 32 31 35 38 38 36 39 42 47 48 53 58 59 56 56 58 64
68 75 44 22 22 24 37 35 20 23 24 27 31 26 27 30 28 31 34 31 27 23 24 26 27 30 32 33 36 38 38 38 37 39 46 46 51 54 57 59 60 66 64 67
54 79 76 23 28 33 30 29 24 23 25 30 28 28 30 26 29 30 30 27 20 20 22 25 27 29 33 35 37 36 38 39 38 43 42 42 57 60 63 66 72 75 77 78
44 43 32 28 32 26 28 28 25 27 24 28 30 28 25 28 31 31 30 22 17 19 22 24 26 31 37 40 38 39 42 40 42 45 46 52 61 66 72 72 78 80 80 84
40 31 30 28 26 25 26 24 22 22 24 27 29 30 29 31 33 32 24 18 19 21 23 27 30 32 37 37 38 43 44 43 45 49 59 61 62 67 74 78 88 85 86 91
38 26 27 25 25 25 25 22 23 22 24 24 26 28 26 29 33 30 20 20 22 24 28 31 32 35 36 37 42 46 46 43 49 55 64 66 66 71 72 71 77 91 96 96
39 28 32 28 24 22 26 25 26 26 25 25 25 26 25 32 33 25 21 23 23 26 31 34 34 37 38 42 48 51 48 47 57 68 70 71 76 74 75 80 80 84 85 89
26 22 26 22 21 21 23 24 24 25 23 24 26 26 30 33 32 37 25 23 26 30 34 35 38 40 42 50 56 52 50 50 63 71 76 79 81 83 86 78 78 80 82 82
22 25 29 27 26 22 21 23 30 22 24 25 24 30 36 33 30 23 24 25 29 32 35 36 41 46 49 55 54 48 51 74 61 76 80 80 76 82 81 85 84 81 78 79
24 24 23 25 23 24 26 27 30 32 31 32 31 39 37 30 27 25 25 29 32 36 35 43 46 49 52 62 56 53 51 58 71 80 83 81 78 80 79 80 81 81 80 80
26 25 26 26 28 27 29 32 38 38 38 40 41 41 36 25 25 27 28 34 46 46 43 51 52 53 63 63 59 59 62 80 74 69 80 80 78 80 80 81 81 84 87 93
30 37 36 37 32 32 32 33 36 40 46 46 46 42 35 32 31 30 33 40 44 51 52 52 60 59 66 64 63 69 78 71 75 63 72 79 79 80 79 82 85 84 89 89
23 29 32 37 43 49 44 44 46 43 52 50 52 52 50 46 48 48 52 58 63 65 61 58 65 72 68 68 74 78 77 70 66 68 74 77 83 80 80 82 82 86 87 89
25 25 31 33 39 48 51 53 56 55 66 67 89 100 100 100 92 94 80 98 97 91 84 74 85 80 75 80 82 83 78 75 72 71 76 78 80 80 85 88 90 90 90 90
29 27 29 32 38 51 50 56 61 67 72 97 100 100 100 100 100 100 99 100 98 96 88 78 77 82 88 81 82 84 82 82 82 81 85 82 88 88 90 86 88 90 91 91
33 33 40 49 56 78 92 80 89 98 84 99 99 97 96 100 100 100 100 98 100 95 83 85 81 82 72 77 82 85 84 85 85 84 86 87 90 87 87 85 89 92 92 91
37 46 66 73 73 64 73 66 63 82 75 100 100 99 100 97 100 98 100 100 95 89 73 69 72 80 74 86 75 85 83 81 83 84 85 86 86 87 89 90 92 92 91 92
38 42 57 72 70 54 55 54 69 76 98 99 97 86 77 66 69 72 78 87 76 84 68 63 82 82 76 89 83 84 82 82 82 80 81 82 81 82 80 80 81 84 87 87
41 45 54 57 52 49 56 49 54 62 83 70 84 99 63 71 71 65 71 92 91 96 84 94 91 75 80 87 87 89 85 85 82 84 74 72 82 80 78 80 78 78 79 80
41 44 50 52 46 51 45 49 52 57 58 57 61 67 61 56 81 66 71 87 94 78 81 89 80 72 92 95 91 88 88 86 83 81 79 79 79 80 79 78 79 79 79 79
40 44 43 42 43 41 43 49 52 53 54 62 62 75 76 65 60 65 79 85 76 74 81 93 87 86 88 82 85 86 82 75 80 78 76 75 75 74 77 76 77 77 78 79
42 53 46 45 39 46 50 51 56 62 62 68 68 75 87 80 77 71 81 85 79 83 91 92 85 78 80 82 78 75 75 74 75 72 75 76 76 78 79 78 78 77 76 77

GFSNGP_sfc_rhum_258.txt.gz
RH
26 23 19 19 19 19 24 27 43 24 29 31 27 26 22 20 22 25 25 24 24 27 30 30 32 31 29 33 33 33 34 36 44 46 46 48 53 54 56 58 56 56 61 64
40 19 18 25 20 19 18 19 21 20 18 11 12 15 22 24 25 26 24 24 25 25 27 29 27 28 29 33 36 35 36 37 39 42 43 49 53 55 55 58 58 61 61 63
46 23 23 56 32 19 20 18 19 29 19 13 16 16 24 26 26 26 25 25 26 29 31 29 28 29 34 33 34 36 37 36 38 42 44 49 48 51 57 61 62 63 63 63
54 36 69 30 17 16 15 15 17 18 15 14 17 22 23 24 25 26 27 28 31 34 32 30 28 31 34 32 34 37 39 40 41 43 45 48 52 54 60 62 64 65 65 65
82 55 29 27 26 21 22 18 14 16 15 14 20 24 28 23 25 29 29 35 37 35 32 28 29 31 32 34 34 35 42 43 42 44 47 51 54 60 63 65 65 63 60 66
77 75 67 27 19 15 16 29 15 15 18 18 25 39 35 30 29 30 33 36 38 32 27 26 30 31 34 35 37 41 44 45 42 45 49 54 59 64 65 64 62 63 65 67
70 77 46 21 19 18 37 35 20 18 20 23 33 29 34 34 30 32 35 31 27 23 28 28 28 31 34 37 42 42 42 44 45 46 52 54 62 64 63 66 68 72 72 72
61 76 71 22 24 34 34 29 25 24 27 32 30 34 36 27 27 30 29 27 20 20 24 28 30 32 33 37 40 40 44 46 45 49 50 52 64 63 66 70 76 80 80 79
49 50 35 27 30 30 29 31 27 27 25 29 31 30 29 26 30 30 29 24 17 19 22 26 27 30 36 42 39 43 47 48 48 52 57 60 63 67 74 75 85 85 85 90
43 30 28 29 26 28 24 27 22 22 25 29 34 32 29 29 31 32 28 19 18 20 23 27 29 30 36 36 40 46 51 50 50 60 66 61 61 70 76 80 91 90 95 96
39 29 28 27 25 29 24 22 21 21 24 27 27 28 28 28 30 31 25 19 20 23 27 29 30 33 34 38 46 50 51 49 54 63 69 68 68 74 75 73 80 89 95 97
51 32 38 34 28 24 28 23 22 23 25 24 24 25 26 26 31 31 22 21 21 25 29 31 32 34 37 44 51 54 54 53 61 69 75 76 77 77 76 81 82 81 81 84
29 28 31 30 26 23 26 25 23 25 24 26 25 25 24 29 34 42 21 22 24 28 31 32 35 37 42 51 60 58 56 55 65 73 77 80 83 83 87 79 77 79 82 79
26 27 36 30 29 26 25 25 33 25 24 24 25 26 29 32 34 24 22 22 26 29 31 34 37 42 49 55 57 56 58 77 70 76 75 82 80 84 84 84 86 83 78 81
28 28 30 26 24 25 25 28 32 29 26 26 26 30 36 35 32 23 23 26 29 32 32 39 42 47 53 62 56 60 61 70 75 81 85 80 81 81 82 79 80 82 82 80
29 29 26 30 27 27 27 31 34 34 34 36 36 39 40 34 26 26 26 32 44 46 38 48 49 52 63 62 62 67 74 78 83 77 80 77 77 81 81 80 81 82 84 86
36 37 36 37 36 32 32 34 35 40 47 44 43 44 40 32 31 31 32 40 42 49 50 52 59 58 65 63 68 78 76 84 85 78 81 80 82 82 81 82 83 83 85 84
28 33 36 38 43 49 45 46 48 47 55 51 53 54 58 55 51 51 55 61 66 70 60 56 66 73 68 69 78 82 79 80 83 84 79 79 81 79 82 83 83 84 85 85
28 26 33 34 41 50 54 52 54 54 63 68 84 88 84 83 80 86 81 90 93 88 85 78 88 84 76 79 82 81 79 84 81 82 79 86 85 88 88 88 89 88 87 88
32 29 31 35 41 52 51 57 60 64 77 95 100 100 100 100 100 99 97 89 96 99 90 86 83 85 84 86 86 90 80 88 80 80 90 86 92 94 91 88 89 90 91 91
38 35 39 52 60 69 77 74 73 88 92 99 93 89 88 100 99 98 98 97 100 96 91 87 86 88 83 86 85 94 90 83 83 83 84 85 86 85 85 86 86 89 90 90
41 46 62 73 74 76 73 76 68 85 91 94 92 91 98 96 97 98 98 98 96 94 89 86 86 88 83 86 85 89 80 80 83 84 82 82 83 84 88 87 88 88 88 88
43 43 64 78 75 68 68 68 82 82 99 93 90 88 83 82 85 85 89 90 93 92 85 84 93 90 86 89 90 87 86 88 89 90 91 91 91 90 89 88 88 88 88 88
47 45 58 61 57 62 66 64 74 75 89 82 85 86 71 80 84 78 88 95 87 92 95 95 91 87 85 93 91 91 89 89 89 91 85 84 92 91 89 90 88 87 87 86
43 45 53 56 54 57 54 52 62 71 76 75 79 80 68 72 88 81 93 95 97 87 92 94 88 84 92 92 92 92 91 90 90 90 90 91 91 92 90 90 90 87 88 87
44 51 55 54 53 50 53 53 68 77 74 77 82 82 80 80 82 83 92 91 86 85 93 94 92 90 92 88 89 90 88 82 86 87 88 89 89 89 92 90 90 89 89 88
50 61 57 56 52 56 63 66 73 75 71 75 80 83 87 88 85 86 92 92 89 87 97 94 90 86 86 87 86 84 85 85 88 84 89 90 91 92 92 92 91 90 90 88